Regional Weather Roundup
Issued by NWS

Home | Current Version | Previous Version | Text Only | Print | Product List | Glossary Off
Versions: 1 2 3 4 5 6 7 8 9 10 11 12 13 14 15 16 17 18 19 20 21 22 23 24 25 26 27 28 29 30 31 32 33 34 35 36 37 38 39 40 41 42 43 44 45 46 47 48 49 50

000
ASUS43 KLOT 220110
RWRIL

ILLINOIS REGIONAL WEATHER ROUNDUP
NATIONAL WEATHER SERVICE CHICAGO/ROMEOVILLE IL
800 PM CDT MON JUL 21 2014

NOTE: "FAIR" INDICATES FEW OR NO CLOUDS BELOW 12,000 FEET WITH NO
SIGNIFICANT WEATHER AND/OR OBSTRUCTIONS TO VISIBILITY.

* THESE STATIONS ARE NOT UNDER NWS QUALITY CONTROL. THEY ALSO MAY NOT
  REPORT WEATHER SUCH AS PRECIPITATION OR FOG.

ILZ001-002-007-009-015-016-024-220200-
NORTHWEST ILLINOIS

CITY           SKY/WX    TMP DP  RH WIND       PRES   REMARKS
MOLINE         CLEAR     80  68  66 S7        30.00R HX  83
STERLING*      CLEAR     79  70  73 S3        30.03S HX  81
SAVANNA*       CLEAR     81  68  65 SE8       30.00S HX  84
$$

ILZ003-004-008-010-011-017-018-220200-
NORTH CENTRAL ILLINOIS

CITY           SKY/WX    TMP DP  RH WIND       PRES   REMARKS
ROCKFORD       CLEAR     79  69  71 SE10      30.05S HX  81
FREEPORT*      CLEAR     76  70  82 SE5       30.05S
ROCHELLE*      CLEAR     77  69  76 SE6       30.05S
DE KALB*       CLEAR     75  68  77 S6        30.07S
PERU*          CLEAR     80  70  70 S8        30.05S HX  83
$$

ILZ005-006-012>014-019>023-220200-
NORTHEAST ILLINOIS

CITY           SKY/WX    TMP DP  RH WIND       PRES   REMARKS
CHICAGO-OHARE  CLEAR     80  63  55 S12       30.06R HX  81
CHICAGO-MIDWAY CLEAR     83  66  56 S12       30.06R HX  85
AURORA         CLEAR     78  67  68 S7        30.07R HX  80
LANSING*       CLEAR     76  64  65 S6        30.08S
JOLIET*        CLEAR     77  64  65 CALM      30.08R
WAUKEGAN       CLEAR     75  64  68 S12       30.05S
DUPAGE AIRPORT CLEAR     77  66  68 S6        30.06R
KANKAKEE*      CLEAR     76  67  73 S3        30.08S
WHEELING       CLEAR     82  64  54 S8        30.07R HX  83
MORRIS*        CLEAR     77  69  76 S5        30.06S
ROMEOVILLE*    CLEAR     77  64  65 S7        30.07S
NORTHERLY ISL    N/A     79  64  60 S8          N/A  HX  81
$$

LMZ740>746-220200-
SOUTHERN LAKE MICHIGAN

STATION/POSITION SKY/WX   TEMP    WIND        PRES    VSBY  WAVE
                          AIR SEA DIR/SP/G                  HT/PER
                          (F)     (DEG/KT/KT) (MB)    (MI)  (FT/S)
SOUTHERN BUOY              72 70  160/  8/ 10 1017.6F         0
WAUKEGAN HARBOR            69     200/ 12/ 13 1018.3S
HARRISON CRIB              77     160/ 10/ 14   N/A
BURNHAM HARBOR             79     150/ 10/ 11   N/A
MICHIGAN CITY              78     220/  3/  6   N/A
$$

ILZ025>027-034>036-040-047-049-050-058-095>099-220200-
WEST-CENTRAL ILLINOIS

CITY           SKY/WX    TMP DP  RH WIND       PRES   REMARKS
QUINCY         CLEAR     81  68  64 SE5       30.02R HX  84
GALESBURG*     CLEAR     80  71  74 SE5       30.02F HX  83
MACOMB*        CLEAR     78  69  75 SE7       30.04S
JACKSONVILLE*  CLEAR     81  70  70 SE5       30.05S HX  84
PITTSFIELD*    CLEAR     79  69  71 SE5       30.04S HX  81
$$

ILZ028>032-037-038-041>044-048-051>054-059>061-220200-
CENTRAL ILLINOIS

CITY           SKY/WX    TMP DP  RH WIND       PRES   REMARKS
PONTIAC        CLEAR     77  72  83 SE5       30.07R
BLOOMINGTON    CLEAR     75  67  76 SE7       30.08F
DECATUR        CLEAR     77  68  73 SE6       30.07S
PEORIA         CLEAR     81  68  64 S12       30.04S HX  84
LACON*         CLEAR     79  69  71 SE7       30.03S HX  81
LINCOLN*       CLEAR     78  70  76 SE3       30.03R HX  80
SPRINGFIELD    CLEAR     80  67  64 S5        30.05S HX  82
TAYLORVILLE    CLEAR     77  68  73 SE3       30.06S
$$

ILZ033-039-045-046-055>057-062-063-220200-
EAST-CENTRAL ILLINOIS

CITY           SKY/WX    TMP DP  RH WIND       PRES   REMARKS
CHAMPAIGN      CLEAR     75  69  81 SE6       30.08S
RANTOUL*       CLEAR     77  67  71 SE5       30.09S
MATTOON        CLEAR     76  67  73 CALM      30.08R
PARIS*         CLEAR     74  71  89 CALM      30.09S
$$

ILZ079-100>102-220200-
SOUTHWEST ILLINOIS

CITY           SKY/WX    TMP DP  RH WIND       PRES   REMARKS
ALTON          CLEAR     77  72  83 E7        30.05S
BELLEVILLE     CLEAR     79  70  73 E1        30.04S HX  82
CAHOKIA*       CLEAR     80  67  64 SE7       30.04S HX  82
SPARTA*        CLEAR     79  68  69 SE3       30.07R HX  81
$$

ILZ064>066-069>071-074>076-080>082-084>086-088>090-092>094-220200-
SOUTH-CENTRAL ILLINOIS

CITY           SKY/WX    TMP DP  RH WIND       PRES   REMARKS
CARBONDALE     CLEAR     77  69  76 CALM      30.06S
CAIRO*         CLEAR     77  67  70 CALM      30.06R
MARION         CLEAR     75  70  83 CALM      30.07S
MT. VERNON     CLEAR     77  66  69 CALM      30.07S
CENTRALIA*     CLEAR     78  65  63 CALM      30.07R HX  80
SALEM*         CLEAR     81  67  62 CALM      30.07S HX  84
METROPOLIS*    CLEAR     77  65  65 W3        30.05S
$$

ILZ067-068-072-073-078-083-087-091-220200-
SOUTHEAST ILLINOIS

CITY           SKY/WX    TMP DP  RH WIND       PRES   REMARKS
FLORA*         CLEAR     80  65  61 CALM      30.07S HX  82
FAIRFIELD*     CLEAR     77  72  83 CALM      30.06S
HARRISBURG*    CLEAR     78  69  73 CALM      30.07S
ROBINSON*      CLEAR     80  71  73 CALM      30.08S HX  83
CARMI*         CLEAR     76  73  91 CALM      30.06R
$$

ABBREVIATIONS USED IN REMARKS
   TC - TEMPERATURE IN CELSIUS
  WCI - WIND CHILL INDEX
   HX - HEAT INDEX
  VSB - VISIBILITY
$$



USA.gov is the U.S. government's official web portal to all federal, state and local government web resources and services.